TimeEST,TemperatureF,Dew PointF,Humidity,Sea Level PressureIn,VisibilityMPH,Wind Direction,Wind SpeedMPH,Gust SpeedMPH,PrecipitationIn,Events,Conditions,WindDirDegrees,DateUTC
12:54 AM,55.0,48.9,80,29.48,7.0,WNW,10.4,20.7,N/A,,Overcast,300,2011-11-11 05:54:00
1:54 AM,53.1,46.0,77,29.47,10.0,NW,20.7,28.8,N/A,,Mostly Cloudy,320,2011-11-11 06:54:00
2:54 AM,51.1,45.0,80,29.47,10.0,WNW,11.5,18.4,N/A,,Mostly Cloudy,300,2011-11-11 07:54:00
3:54 AM,50.0,42.1,74,29.46,10.0,WNW,16.1,23.0,N/A,,Mostly Cloudy,300,2011-11-11 08:54:00
4:54 AM,48.9,41.0,74,29.43,10.0,NW,12.7,-,N/A,,Mostly Cloudy,320,2011-11-11 09:54:00
5:54 AM,48.0,37.9,68,29.43,10.0,NW,11.5,19.6,N/A,,Mostly Cloudy,320,2011-11-11 10:54:00
6:54 AM,46.9,37.0,68,29.46,10.0,WNW,17.3,25.3,N/A,,Overcast,290,2011-11-11 11:54:00
7:54 AM,46.0,37.0,71,29.47,10.0,WNW,13.8,-,N/A,,Overcast,290,2011-11-11 12:54:00
8:54 AM,45.0,35.1,68,29.47,10.0,WNW,17.3,27.6,N/A,,Overcast,300,2011-11-11 13:54:00
9:03 AM,46.4,35.6,66,29.47,10.0,WNW,12.7,19.6,0.00,Rain,Light Rain,290,2011-11-11 14:03:00
9:17 AM,46.4,33.8,62,29.47,10.0,WNW,16.1,-,0.00,,Overcast,300,2011-11-11 14:17:00
9:54 AM,46.9,33.1,59,29.48,10.0,WNW,18.4,24.2,0.00,,Overcast,290,2011-11-11 14:54:00
10:54 AM,50.0,32.0,50,29.47,10.0,WNW,18.4,29.9,N/A,,Scattered Clouds,300,2011-11-11 15:54:00
11:54 AM,51.1,28.0,41,29.47,10.0,West,20.7,31.1,N/A,,Scattered Clouds,280,2011-11-11 16:54:00
12:54 PM,50.0,26.1,39,29.48,10.0,WNW,18.4,27.6,N/A,,Scattered Clouds,300,2011-11-11 17:54:00
1:54 PM,50.0,25.0,38,29.50,10.0,WNW,23.0,31.1,N/A,,Scattered Clouds,300,2011-11-11 18:54:00
2:54 PM,48.9,28.0,44,29.54,10.0,West,20.7,32.2,N/A,,Mostly Cloudy,280,2011-11-11 19:54:00
3:54 PM,45.0,30.9,58,29.60,10.0,West,19.6,31.1,0.00,,Scattered Clouds,280,2011-11-11 20:54:00
4:54 PM,44.1,30.9,60,29.63,10.0,WNW,16.1,21.9,N/A,,Scattered Clouds,290,2011-11-11 21:54:00
5:54 PM,44.1,30.9,60,29.66,10.0,West,9.2,17.3,N/A,,Partly Cloudy,270,2011-11-11 22:54:00
6:54 PM,44.1,27.0,51,29.70,10.0,West,12.7,29.9,N/A,,Clear,260,2011-11-11 23:54:00
7:54 PM,43.0,28.9,58,29.72,10.0,West,17.3,24.2,N/A,,Clear,260,2011-11-12 00:54:00
8:54 PM,42.1,30.0,62,29.75,10.0,West,17.3,25.3,N/A,,Clear,260,2011-11-12 01:54:00
9:54 PM,42.1,28.9,60,29.78,10.0,West,15.0,25.3,N/A,,Partly Cloudy,270,2011-11-12 02:54:00
10:54 PM,42.1,28.9,60,29.81,10.0,West,17.3,25.3,N/A,,Partly Cloudy,260,2011-11-12 03:54:00
11:54 PM,42.1,28.0,58,29.85,10.0,West,16.1,24.2,N/A,,Partly Cloudy,260,2011-11-12 04:54:00